Time,TemperatureF,DewpointF,PressureIn,WindDirection,WindDirectionDegrees,WindSpeedMPH,WindSpeedGustMPH,Humidity,HourlyPrecipIn,Conditions,Clouds,dailyrainin,SoftwareType,DateUTC
2013-02-06 00:01:00,44.1,39.3,30.01,South,190,0.0,0.0,83,0.00,,SKC,0.00,VWS V13.01,2013-02-06 08:01:00,
2013-02-06 00:11:00,44.1,39.0,30.01,SSW,198,0.0,0.0,82,0.00,,SKC,0.00,VWS V13.01,2013-02-06 08:11:00,
2013-02-06 00:21:00,44.1,39.0,30.02,SW,224,0.0,0.0,82,0.00,,SKC,0.00,VWS V13.01,2013-02-06 08:21:00,
2013-02-06 00:31:00,44.1,39.0,30.02,SSW,201,0.0,0.0,82,0.00,,SKC,0.00,VWS V13.01,2013-02-06 08:31:00,
2013-02-06 00:41:00,44.1,38.7,30.02,South,179,0.0,0.0,81,0.00,,SKC,0.00,VWS V13.01,2013-02-06 08:41:00,
2013-02-06 00:51:00,44.2,38.8,30.03,South,188,0.0,0.0,81,0.00,,SKC,0.00,VWS V13.01,2013-02-06 08:51:00,
2013-02-06 01:01:00,44.2,38.8,30.02,SSW,201,0.0,0.0,81,0.00,,SKC,0.00,VWS V13.01,2013-02-06 09:01:00,
2013-02-06 01:11:00,44.2,38.8,30.02,SSW,213,0.0,0.0,81,0.00,,SKC,0.00,VWS V13.01,2013-02-06 09:11:00,
2013-02-06 01:21:00,44.2,38.8,30.03,South,176,0.0,0.0,81,0.00,,SKC,0.00,VWS V13.01,2013-02-06 09:21:00,
2013-02-06 01:31:00,44.1,38.7,30.04,South,183,0.0,0.0,81,0.00,,SKC,0.00,VWS V13.01,2013-02-06 09:31:00,
2013-02-06 01:41:00,44.1,39.0,30.04,South,185,0.0,0.0,82,0.01,,SKC,0.01,VWS V13.01,2013-02-06 09:41:00,
2013-02-06 01:51:00,43.9,39.1,30.04,SSW,206,0.0,0.0,83,0.01,,SKC,0.01,VWS V13.01,2013-02-06 09:51:00,
2013-02-06 02:01:00,43.6,39.1,30.04,SSW,206,0.0,0.0,84,0.02,,SKC,0.02,VWS V13.01,2013-02-06 10:01:00,
2013-02-06 02:11:00,43.5,39.3,30.04,SW,224,0.0,0.0,85,0.02,,SKC,0.02,VWS V13.01,2013-02-06 10:11:00,
2013-02-06 02:21:00,43.5,39.3,30.05,SSW,206,0.0,0.0,85,0.02,,SKC,0.02,VWS V13.01,2013-02-06 10:21:00,
2013-02-06 02:31:00,43.3,39.4,30.05,South,191,0.0,0.0,86,0.02,,SKC,0.02,VWS V13.01,2013-02-06 10:31:00,
2013-02-06 02:41:00,43.3,39.4,30.05,South,189,0.0,0.0,86,0.02,,SKC,0.02,VWS V13.01,2013-02-06 10:41:00,
2013-02-06 02:51:00,43.3,39.7,30.04,South,182,0.0,0.0,87,0.01,,SKC,0.02,VWS V13.01,2013-02-06 10:51:00,
2013-02-06 03:01:00,43.3,39.7,30.04,SSE,164,0.0,0.0,87,0.01,,SKC,0.02,VWS V13.01,2013-02-06 11:01:00,
2013-02-06 03:11:00,43.3,39.7,30.04,SSW,196,0.0,0.0,87,0.00,,SKC,0.02,VWS V13.01,2013-02-06 11:11:00,
2013-02-06 03:21:00,43.5,39.6,30.04,SSW,209,0.0,0.0,86,0.00,,SKC,0.02,VWS V13.01,2013-02-06 11:21:00,
2013-02-06 03:31:00,43.6,39.7,30.04,SSW,200,0.0,0.0,86,0.00,,SKC,0.02,VWS V13.01,2013-02-06 11:31:00,
2013-02-06 03:41:00,43.8,39.6,30.04,South,189,0.0,0.0,85,0.00,,SKC,0.02,VWS V13.01,2013-02-06 11:41:00,
2013-02-06 03:51:00,43.9,39.7,30.05,SSW,213,0.0,0.0,85,0.00,,SKC,0.02,VWS V13.01,2013-02-06 11:51:00,
2013-02-06 04:01:00,43.9,39.7,30.06,South,187,0.0,0.0,85,0.00,,SKC,0.02,VWS V13.01,2013-02-06 12:01:00,
2013-02-06 04:11:00,43.8,39.6,30.06,South,179,0.0,0.0,85,0.00,,SKC,0.02,VWS V13.01,2013-02-06 12:11:00,
2013-02-06 04:21:00,43.6,39.7,30.05,SSW,205,0.0,0.0,86,0.00,,SKC,0.02,VWS V13.01,2013-02-06 12:21:00,
2013-02-06 04:31:00,43.5,39.6,30.05,South,188,0.0,0.0,86,0.00,,SKC,0.02,VWS V13.01,2013-02-06 12:31:00,
2013-02-06 04:41:00,43.5,39.6,30.05,SW,221,0.0,0.0,86,0.00,,SKC,0.02,VWS V13.01,2013-02-06 12:41:00,
2013-02-06 04:51:00,43.3,39.4,30.06,SSW,210,0.0,0.0,86,0.00,,SKC,0.02,VWS V13.01,2013-02-06 12:51:00,
2013-02-06 05:01:00,43.2,39.3,30.06,South,191,0.0,0.0,86,0.00,,SKC,0.02,VWS V13.01,2013-02-06 13:01:00,
2013-02-06 05:11:00,43.2,39.3,30.06,South,185,0.0,0.0,86,0.00,,SKC,0.02,VWS V13.01,2013-02-06 13:11:00,
2013-02-06 05:21:00,43.3,39.4,30.06,South,179,0.0,0.0,86,0.00,,SKC,0.02,VWS V13.01,2013-02-06 13:21:00,
2013-02-06 05:31:00,43.3,39.4,30.06,SSE,149,0.0,0.0,86,0.00,,SKC,0.02,VWS V13.01,2013-02-06 13:31:00,
2013-02-06 05:41:00,43.3,39.4,30.06,South,179,0.0,0.0,86,0.00,,SKC,0.02,VWS V13.01,2013-02-06 13:41:00,
2013-02-06 05:51:00,43.2,39.3,30.06,SSW,192,0.0,0.0,86,0.00,,SKC,0.02,VWS V13.01,2013-02-06 13:51:00,
2013-02-06 06:01:00,43.1,39.2,30.06,SSW,193,0.0,0.0,86,0.00,,SKC,0.02,VWS V13.01,2013-02-06 14:01:00,
2013-02-06 06:11:00,43.1,39.2,30.06,South,179,0.0,0.0,86,0.00,,SKC,0.02,VWS V13.01,2013-02-06 14:11:00,
2013-02-06 06:21:00,43.1,39.2,30.05,South,174,0.0,0.0,86,0.00,,SKC,0.02,VWS V13.01,2013-02-06 14:21:00,
2013-02-06 06:31:00,43.1,39.2,30.05,SSW,193,0.0,0.0,86,0.00,,SKC,0.02,VWS V13.01,2013-02-06 14:31:00,
2013-02-06 06:41:00,43.2,39.3,30.05,SSE,154,0.0,0.0,86,0.00,,SKC,0.02,VWS V13.01,2013-02-06 14:41:00,
2013-02-06 06:51:00,43.3,39.1,30.05,South,180,0.0,0.0,85,0.00,,SKC,0.02,VWS V13.01,2013-02-06 14:51:00,
2013-02-06 07:01:00,43.5,39.0,30.05,SSE,167,0.0,0.0,84,0.00,,SKC,0.02,VWS V13.01,2013-02-06 15:01:00,
2013-02-06 07:11:00,43.5,39.0,30.05,SSE,168,0.0,0.0,84,0.00,,SKC,0.02,VWS V13.01,2013-02-06 15:11:00,
2013-02-06 07:21:00,43.6,38.8,30.04,SSW,194,0.0,0.0,83,0.00,,SKC,0.02,VWS V13.01,2013-02-06 15:21:00,
2013-02-06 07:31:00,43.8,39.0,30.05,SE,144,0.0,0.0,83,0.00,,SKC,0.02,VWS V13.01,2013-02-06 15:31:00,
2013-02-06 07:41:00,43.9,39.1,30.05,South,178,0.0,0.0,83,0.00,,SKC,0.02,VWS V13.01,2013-02-06 15:41:00,
2013-02-06 07:51:00,43.9,38.8,30.05,South,169,0.0,0.0,82,0.00,,SKC,0.02,VWS V13.01,2013-02-06 15:51:00,
2013-02-06 08:01:00,44.1,39.0,30.05,SSE,164,0.0,0.0,82,0.00,,SKC,0.02,VWS V13.01,2013-02-06 16:01:00,
2013-02-06 08:11:00,44.2,39.1,30.05,SSW,192,0.0,0.0,82,0.00,,SKC,0.02,VWS V13.01,2013-02-06 16:11:00,
2013-02-06 08:21:00,44.2,39.1,30.05,SSE,166,0.0,0.0,82,0.00,,SKC,0.02,VWS V13.01,2013-02-06 16:21:00,
2013-02-06 08:31:00,44.3,38.8,30.05,SW,217,0.0,0.0,81,0.00,,SKC,0.02,VWS V13.01,2013-02-06 16:31:00,
2013-02-06 08:41:00,44.5,39.0,30.05,SE,141,0.0,0.0,81,0.00,,SKC,0.02,VWS V13.01,2013-02-06 16:41:00,
2013-02-06 08:51:00,44.6,38.8,30.05,SSW,192,0.0,0.0,80,0.00,,SKC,0.02,VWS V13.01,2013-02-06 16:51:00,
2013-02-06 09:01:00,44.9,38.8,30.06,South,173,0.0,0.0,79,0.00,,SKC,0.02,VWS V13.01,2013-02-06 17:01:00,
2013-02-06 09:11:00,45.2,38.8,30.06,SSW,206,0.0,0.0,78,0.00,,SKC,0.02,VWS V13.01,2013-02-06 17:11:00,
2013-02-06 09:21:00,45.4,38.6,30.06,South,181,0.0,0.0,77,0.00,,SKC,0.02,VWS V13.01,2013-02-06 17:21:00,
2013-02-06 09:31:00,45.5,38.7,30.05,South,177,0.0,0.0,77,0.00,,SKC,0.02,VWS V13.01,2013-02-06 17:31:00,
2013-02-06 09:41:00,45.8,38.7,30.05,SE,144,0.0,0.0,76,0.00,,SKC,0.02,VWS V13.01,2013-02-06 17:41:00,
2013-02-06 09:51:00,46.1,38.6,30.05,South,174,0.0,0.0,75,0.00,,SKC,0.02,VWS V13.01,2013-02-06 17:51:00,
2013-02-06 10:01:00,46.4,38.6,30.05,SSW,205,0.0,0.0,74,0.00,,SKC,0.02,VWS V13.01,2013-02-06 18:01:00,
2013-02-06 10:11:00,46.5,38.7,30.05,South,172,0.0,0.0,74,0.00,,SKC,0.02,VWS V13.01,2013-02-06 18:11:00,
2013-02-06 10:21:00,46.8,38.6,30.04,South,189,0.0,0.0,73,0.00,,SKC,0.02,VWS V13.01,2013-02-06 18:21:00,
2013-02-06 10:31:00,47.0,38.5,30.04,South,189,0.0,0.0,72,0.00,,SKC,0.02,VWS V13.01,2013-02-06 18:31:00,
2013-02-06 10:41:00,47.3,38.4,30.04,SSW,205,0.0,0.0,71,0.00,,SKC,0.02,VWS V13.01,2013-02-06 18:41:00,
2013-02-06 10:51:00,47.4,37.8,30.04,SW,216,0.0,0.0,69,0.00,,SKC,0.02,VWS V13.01,2013-02-06 18:51:00,
2013-02-06 11:01:00,47.7,38.0,30.04,South,176,0.0,0.0,69,0.00,,SKC,0.02,VWS V13.01,2013-02-06 19:01:00,
2013-02-06 11:11:00,48.2,38.5,30.04,SSW,210,0.0,0.0,69,0.00,,SKC,0.02,VWS V13.01,2013-02-06 19:11:00,
2013-02-06 11:21:00,48.5,38.4,30.03,South,180,0.0,0.0,68,0.00,,SKC,0.02,VWS V13.01,2013-02-06 19:21:00,
2013-02-06 11:31:00,49.1,38.2,30.03,SSW,210,0.0,0.0,66,0.00,,SKC,0.02,VWS V13.01,2013-02-06 19:31:00,
2013-02-06 11:41:00,49.5,38.6,30.03,SSW,203,0.0,0.0,66,0.00,,SKC,0.02,VWS V13.01,2013-02-06 19:41:00,
2013-02-06 11:51:00,49.4,37.8,30.02,South,189,0.0,0.0,64,0.00,,SKC,0.02,VWS V13.01,2013-02-06 19:51:00,
2013-02-06 12:01:00,49.2,38.0,30.01,SSW,194,0.0,0.0,65,0.00,,SKC,0.02,VWS V13.01,2013-02-06 20:01:00,
2013-02-06 12:11:00,49.4,38.5,30.01,SSE,157,0.0,0.0,66,0.00,,SKC,0.02,VWS V13.01,2013-02-06 20:11:00,
2013-02-06 12:21:00,49.5,38.2,30.00,WSW,241,0.0,0.0,65,0.00,,SKC,0.02,VWS V13.01,2013-02-06 20:21:00,
2013-02-06 12:31:00,49.6,37.9,29.99,South,190,0.0,0.0,64,0.00,,SKC,0.02,VWS V13.01,2013-02-06 20:31:00,
2013-02-06 12:41:00,49.9,37.8,29.99,SSW,200,0.0,0.0,63,0.00,,SKC,0.02,VWS V13.01,2013-02-06 20:41:00,
2013-02-06 12:51:00,50.1,38.0,29.98,SSW,209,0.0,0.0,63,0.00,,SKC,0.02,VWS V13.01,2013-02-06 20:51:00,
2013-02-06 13:01:00,50.1,38.0,29.98,South,174,0.0,0.0,63,0.00,,SKC,0.02,VWS V13.01,2013-02-06 21:01:00,
2013-02-06 13:11:00,50.2,38.1,29.98,South,182,0.0,0.0,63,0.00,,SKC,0.02,VWS V13.01,2013-02-06 21:11:00,
2013-02-06 13:21:00,50.7,38.2,29.97,South,188,0.0,0.0,62,0.00,,SKC,0.02,VWS V13.01,2013-02-06 21:21:00,
2013-02-06 13:31:00,50.8,37.8,29.96,South,179,0.0,0.0,61,0.00,,SKC,0.02,VWS V13.01,2013-02-06 21:31:00,
2013-02-06 13:41:00,51.1,38.1,29.96,SW,221,0.0,0.0,61,0.00,,SKC,0.02,VWS V13.01,2013-02-06 21:41:00,
2013-02-06 13:51:00,51.1,38.1,29.95,SW,228,0.0,0.0,61,0.00,,SKC,0.02,VWS V13.01,2013-02-06 21:51:00,
2013-02-06 14:01:00,51.1,38.5,29.95,SW,223,0.0,0.0,62,0.00,,SKC,0.02,VWS V13.01,2013-02-06 22:01:00,
2013-02-06 14:11:00,51.3,38.7,29.95,South,177,0.0,0.0,62,0.00,,SKC,0.02,VWS V13.01,2013-02-06 22:11:00,
2013-02-06 14:21:00,51.4,38.8,29.93,SW,225,0.0,0.0,62,0.00,,SKC,0.02,VWS V13.01,2013-02-06 22:21:00,
2013-02-06 14:31:00,51.6,39.0,29.93,SSW,200,0.0,0.0,62,0.00,,SKC,0.02,VWS V13.01,2013-02-06 22:31:00,
2013-02-06 14:41:00,51.7,38.7,29.93,South,188,0.0,0.0,61,0.00,,SKC,0.02,VWS V13.01,2013-02-06 22:41:00,
2013-02-06 14:51:00,51.9,37.6,29.92,South,172,0.0,0.0,58,0.00,,SKC,0.02,VWS V13.01,2013-02-06 22:51:00,
2013-02-06 15:01:00,52.0,37.2,29.92,SSW,201,0.0,0.0,57,0.00,,SKC,0.02,VWS V13.01,2013-02-06 23:01:00,
2013-02-06 15:11:00,51.9,37.6,29.92,SSW,207,0.0,0.0,58,0.00,,SKC,0.02,VWS V13.01,2013-02-06 23:11:00,
2013-02-06 15:21:00,51.7,37.4,29.92,SSW,200,0.0,0.0,58,0.00,,SKC,0.02,VWS V13.01,2013-02-06 23:21:00,
2013-02-06 15:31:00,51.6,37.8,29.92,SW,228,0.0,0.0,59,0.00,,SKC,0.02,VWS V13.01,2013-02-06 23:31:00,
2013-02-06 15:41:00,51.6,38.2,29.92,WSW,245,0.0,0.0,60,0.00,,SKC,0.02,VWS V13.01,2013-02-06 23:41:00,
2013-02-06 15:51:00,51.4,38.8,29.92,WSW,238,0.0,0.0,62,0.00,,SKC,0.02,VWS V13.01,2013-02-06 23:51:00,
2013-02-06 16:01:00,51.0,39.7,29.91,WNW,287,0.0,0.0,65,0.00,,SKC,0.02,VWS V13.01,2013-02-07 00:01:00,
2013-02-06 16:11:00,50.4,39.5,29.91,West,259,0.0,0.0,66,0.00,,SKC,0.02,VWS V13.01,2013-02-07 00:11:00,
2013-02-06 16:21:00,50.1,39.6,29.92,West,272,0.0,0.0,67,0.00,,SKC,0.02,VWS V13.01,2013-02-07 00:21:00,
2013-02-06 16:31:00,49.9,39.4,29.91,WSW,257,0.0,0.0,67,0.00,,SKC,0.02,VWS V13.01,2013-02-07 00:31:00,
2013-02-06 16:41:00,49.8,39.7,29.91,West,259,0.0,0.0,68,0.00,,SKC,0.02,VWS V13.01,2013-02-07 00:41:00,
2013-02-06 16:51:00,49.6,39.9,29.90,SW,220,0.0,0.0,69,0.00,,SKC,0.02,VWS V13.01,2013-02-07 00:51:00,
2013-02-06 17:01:00,49.5,39.8,29.89,SSW,192,0.0,0.0,69,0.00,,SKC,0.02,VWS V13.01,2013-02-07 01:01:00,
2013-02-06 17:11:00,49.2,40.2,29.89,SSW,192,0.0,0.0,71,0.00,,SKC,0.02,VWS V13.01,2013-02-07 01:11:00,
2013-02-06 17:21:00,48.9,40.3,29.89,SSE,167,0.0,0.0,72,0.00,,SKC,0.02,VWS V13.01,2013-02-07 01:21:00,
2013-02-06 17:31:00,48.8,40.2,29.88,SSE,167,0.0,0.0,72,0.00,,SKC,0.02,VWS V13.01,2013-02-07 01:31:00,
2013-02-06 17:41:00,48.6,40.0,29.88,SSE,153,0.0,0.0,72,0.00,,SKC,0.02,VWS V13.01,2013-02-07 01:41:00,
2013-02-06 17:51:00,48.3,40.1,29.88,ESE,112,0.0,0.0,73,0.00,,SKC,0.02,VWS V13.01,2013-02-07 01:51:00,
2013-02-06 18:01:00,48.2,40.0,29.87,ESE,112,0.0,0.0,73,0.00,,SKC,0.02,VWS V13.01,2013-02-07 02:01:00,
2013-02-06 18:11:00,48.0,40.1,29.87,ESE,113,0.0,0.0,74,0.00,,SKC,0.02,VWS V13.01,2013-02-07 02:11:00,
2013-02-06 18:21:00,48.0,40.1,29.87,ESE,113,0.0,0.0,74,0.00,,SKC,0.02,VWS V13.01,2013-02-07 02:21:00,
2013-02-06 18:31:00,47.9,40.0,29.86,ESE,113,0.0,0.0,74,0.00,,SKC,0.02,VWS V13.01,2013-02-07 02:31:00,
2013-02-06 18:41:00,47.9,40.0,29.86,SSE,153,0.0,0.0,74,0.00,,SKC,0.02,VWS V13.01,2013-02-07 02:41:00,
2013-02-06 18:51:00,47.9,40.0,29.85,South,175,0.0,0.0,74,0.00,,SKC,0.02,VWS V13.01,2013-02-07 02:51:00,
2013-02-06 19:01:00,47.7,39.8,29.85,SE,131,0.0,0.0,74,0.00,,SKC,0.02,VWS V13.01,2013-02-07 03:01:00,
2013-02-06 19:11:00,47.6,39.7,29.85,ESE,111,0.0,0.0,74,0.00,,SKC,0.02,VWS V13.01,2013-02-07 03:11:00,
2013-02-06 19:21:00,47.6,39.4,29.84,South,178,0.0,0.0,73,0.00,,SKC,0.02,VWS V13.01,2013-02-07 03:21:00,
2013-02-06 19:31:00,47.6,39.0,29.83,SSE,162,0.0,0.0,72,0.00,,SKC,0.02,VWS V13.01,2013-02-07 03:31:00,
2013-02-06 19:41:00,47.4,38.8,29.83,SSE,153,0.0,0.0,72,0.00,,SKC,0.02,VWS V13.01,2013-02-07 03:41:00,
2013-02-06 19:51:00,47.3,38.7,29.83,South,182,0.0,0.0,72,0.00,,SKC,0.02,VWS V13.01,2013-02-07 03:51:00,
2013-02-06 20:01:00,47.3,38.7,29.82,ESE,115,0.0,0.0,72,0.00,,SKC,0.02,VWS V13.01,2013-02-07 04:01:00,
2013-02-06 20:11:00,47.0,38.8,29.82,ESE,106,0.0,0.0,73,0.00,,SKC,0.02,VWS V13.01,2013-02-07 04:11:00,
2013-02-06 20:21:00,46.5,38.7,29.82,ESE,121,0.0,0.0,74,0.00,,SKC,0.02,VWS V13.01,2013-02-07 04:21:00,
2013-02-06 20:31:00,46.4,37.9,29.81,SSE,166,0.0,0.0,72,0.00,,SKC,0.02,VWS V13.01,2013-02-07 04:31:00,
2013-02-06 20:41:00,47.4,37.0,29.81,SSE,164,0.0,0.0,67,0.00,,SKC,0.02,VWS V13.01,2013-02-07 04:41:00,
2013-02-06 20:51:00,48.3,36.7,29.80,South,184,0.0,0.0,64,0.00,,SKC,0.02,VWS V13.01,2013-02-07 04:51:00,
2013-02-06 21:01:00,48.8,36.4,29.80,South,186,0.0,0.0,62,0.00,,SKC,0.02,VWS V13.01,2013-02-07 05:01:00,
2013-02-06 21:11:00,49.2,36.3,29.80,South,187,0.0,0.0,61,0.00,,SKC,0.02,VWS V13.01,2013-02-07 05:11:00,
2013-02-06 21:21:00,49.4,36.5,29.80,SSW,193,0.0,0.0,61,0.00,,SKC,0.02,VWS V13.01,2013-02-07 05:21:00,
2013-02-06 21:31:00,49.4,36.9,29.81,SW,229,0.0,0.0,62,0.00,,SKC,0.02,VWS V13.01,2013-02-07 05:31:00,
2013-02-06 21:41:00,49.2,37.6,29.81,SSW,203,0.0,0.0,64,0.00,,SKC,0.02,VWS V13.01,2013-02-07 05:41:00,
2013-02-06 21:51:00,48.9,37.7,29.80,WSW,243,0.0,0.0,65,0.00,,SKC,0.02,VWS V13.01,2013-02-07 05:51:00,
2013-02-06 22:01:00,48.5,37.7,29.80,SW,219,0.0,0.0,66,0.00,,SKC,0.02,VWS V13.01,2013-02-07 06:01:00,
2013-02-06 22:11:00,48.3,37.9,29.80,SW,224,0.0,0.0,67,0.00,,SKC,0.02,VWS V13.01,2013-02-07 06:11:00,
2013-02-06 22:21:00,48.2,38.5,29.81,SSW,210,0.0,0.0,69,0.01,,SKC,0.03,VWS V13.01,2013-02-07 06:21:00,
2013-02-06 22:31:00,47.7,38.4,29.82,SW,217,0.0,0.0,70,0.01,,SKC,0.03,VWS V13.01,2013-02-07 06:31:00,
2013-02-06 22:41:00,47.0,39.2,29.82,West,259,0.0,0.0,74,0.02,,SKC,0.04,VWS V13.01,2013-02-07 06:41:00,
2013-02-06 22:51:00,46.4,39.6,29.85,SW,220,0.0,0.0,77,0.03,,SKC,0.05,VWS V13.01,2013-02-07 06:51:00,
2013-02-06 23:01:00,45.5,39.4,29.86,West,273,0.0,0.0,79,0.04,,SKC,0.06,VWS V13.01,2013-02-07 07:01:00,
2013-02-06 23:11:00,43.5,37.8,29.86,WSW,247,0.0,0.0,80,0.04,,SKC,0.06,VWS V13.01,2013-02-07 07:11:00,
2013-02-06 23:21:00,42.3,36.9,29.88,West,262,0.0,0.0,81,0.05,,SKC,0.07,VWS V13.01,2013-02-07 07:21:00,
2013-02-06 23:31:00,41.8,37.0,29.89,West,260,0.0,0.0,83,0.05,,SKC,0.08,VWS V13.01,2013-02-07 07:31:00,
2013-02-06 23:41:00,41.5,36.7,29.89,WSW,254,0.0,0.0,83,0.06,,SKC,0.09,VWS V13.01,2013-02-07 07:41:00,
2013-02-06 23:51:00,41.3,36.5,29.89,SW,215,0.0,0.0,83,0.05,,SKC,0.09,VWS V13.01,2013-02-07 07:51:00,